Find Starlink 34163

NORAD ID: 64008 Int'l Des: 2025-101 Owner: SPXS Country: US Constellation: starlink operational
LEOCIRCULAR

リアルタイム位置

3D地球を読み込み中...

Starlink 34163について

説明を読み込み中...

次回通過

Passes for default location (London). Set your location on the main map for personalized predictions.

高度履歴

Loading altitude history...

軌道要素

1 64008U 25101Q 26139.50543187 .00025818 00000-0 94312-3 0 9997
2 64008 43.0010 318.2031 0001486 282.6210 77.4475 15.27626245 57888
Epoch: May 19, 2026 • Age: 10 hours

現在のステータス

高度 486.7 km
速度 7.63 km/s
衛星直下点 41.62°N, 143.02°W
打ち上げ日 May 14, 2025
運用期間 1 years
タイプ internet

技術仕様

分類 Payload
質量 575.00 kg
乾燥質量 530.00 kg
総質量 575.00 kg
長さ 0.30 m
直径 4.10 m
スパン 29.00 m
形状 Box + pan
製造者 SPXS
バスタイプ Starlink V2MO
フェーズステータス In Orbit
所有者/国 SPXS/US

Most Searched